Starlink 3240

operational
NORAD ID: 49728 Int'l Des: 2021-115 Owner: SPXS Country: US Constellation: starlink
LEOCIRCULAR

Starlink 3240について

説明を読み込み中...

リアルタイム位置

3D地球を読み込み中...

次回通過

高度履歴

Altitude vs Time

uPlot chart will show altitude changes over time

軌道要素

1 49728U 21115E 26035.44745218 -.00000671 00000-0 -24085-4 0 9990
2 49728 53.2196 308.3494 0001747 73.2936 286.8247 15.08837751230375
Epoch: Feb 4, 2026 • Age: 11 hours

現在のステータス

高度 544.6 km
速度 7.60 km/s
衛星直下点 51.02°N, 95.14°W
打ち上げ日 Dec 2, 2021
運用期間 4.1 years
タイプ internet

技術仕様

分類 Payload
質量 290.00 kg
乾燥質量 270.00 kg
総質量 290.00 kg
長さ 0.20 m
直径 2.80 m
スパン 9.00 m
形状 Box + pan
製造者 SPXS
バスタイプ Starlink
フェーズステータス In Orbit
所有者/国 SPXS/US

大規模コンステレーション

Loading constellations...